sat.trackr.live / text

‹ back to catalog

STARLINK-37399

NORAD 68772 · 2026-086G

PAYLOAD ACTIVE UNKNOWN

§ Identity

Operator
Country
US
Launch date
2026-04-19
Launch site
AFWTR
Launch vehicle
Mass (kg)
RCS (m²)

Purposes: comms

External: N2YO · Heavens-Above · Gunter

§ Orbital elements

Epoch: 2026-05-25T04:00:03.998880Z

Period
92.68 min
Inclination
97.2843°
Eccentricity
0.0002005
Mean motion
15.53698663 rev/d
Perigee alt
404.6 km
Apogee alt
407.3 km
Semi-major
6,784.1 km
B*
-4.5196e-2
RAAN
181.9710°
Arg perigee
72.9036°
Mean anomaly
145.6645°
Rev number
607

§ Raw data

STARLINK-373991 68772U 26086G   26145.16671295 -.02557437  00000+0 -45196-1 0  99972 68772  97.2843 181.9710 0002005  72.9036 145.6645 15.53698663  6072

JSON: /api/v1/satellites/68772 · /tle

For live sub-satellite position, see the globe view (requires WebGL).

§ Visibility from observer

Set your observer location to see the next 7 days of passes ≥ 10°. The values pass through the URL so the page stays shareable.

No JS? Fill the form by hand. The geolocation button needs JavaScript.